NSS-12

Last updated on Fri Jul 10 2026 00:03:02 GMT+0000 (Coordinated Universal Time)

1 36032U 09058A 26190.22371355 .00000085 00000+0 00000+0 0 9993 2 36032 0.0492 282.0136 0004188 151.6785 351.0298 1.00273456 61134
UTC large
Height (km)
Speed (km/s)
/
Latitude / Longitude
Inclination (degrees)
Orbital Period (minutes)
Azimuth
Elevation
Range (km)
Doppler Factor

Next 0 passes for location: London (51.5072 / 0.1276)

No passes found over London.
NSS-12